LiveATC.Net - Listen to live air traffic control over the Internet!


ICAO: KFMH  IATA: FMH   Airport: Cape Cod Coast Guard Air Station
City: Falmouth   State/Province: Massachusetts
Country: United States   Continent: North America
KFMH METAR Weather: KFMH 051855Z 22012G19KT 10SM CLR 29/21 A3000
KFMH Flight Activity (FlightAware)
KFMH Airport Info   (iFlightPlanner)
KFMH VFR Sectional Chart   (iFlightPlanner) 
KFMH IFR Low Chart   (iFlightPlanner) 

KHYA/KFMH Twr/Cape App
Feed Status: DOWN
Last heard on: 2020-02-05 09:52:22 (182 days 10 hours 1 minutes ago)
FacilityFrequency
Cape Approach118.200
Cape Approach120.125
Cape Approach284.600
Coast Guard Tower128.425
Coast Guard Tower291.100
Hyannis Tower119.500
Hyannis Tower257.800
Feed courtesy of: Scan New England and LiveATC.net
Scan New England

NOTICE

Unauthorized use prohibited. See LiveATC.net Terms of Service


Airport/ARTCC Code
Frequency Search
(e.g., 124.400, 128.75)
Site-wide search
 


Browse Feeds
Top 50 Feeds
Coverage Map
Bad Weather Areas

LiveATC FAQ
Offer LiveATC feed
Contact LiveATC.net
Press Inquiries

LiveATC on iPhone
LiveATC on Android

Windows Phone
Windows 8/10

LiveATC Mobile
(Mobile browser)

ATC Audio Archives
Interesting Recordings

LiveATC Forums


Home Page
About LiveATC.net
Make a Donation
Terms of Use
Privacy Policy

Canadian Air Freqs

AIRMETs/SIGMETs

FAA Airport Status
Nat'l Airspace Status
Arrival Demand Charts


Server Software By:
Icecast.org
Liquidsoap